Погода в Седанке

Россия / Камчатский край     57°43′31″N   158°17′15″E
темп.,
°C
ветер,
м/с
пор.,
м/с
влажн.,
%
обл.,
%
осадки,
мм/ч
давл.,
гПа
погр.,
м
11 мая, вт
вт1100:00−2ссз25895 0.0 1015121
03:00−2ссз23925 0.0 1014100
06:00−2с23937 0.0 1015109
09:00+2с22715 0.0 1014429
12:00+6ссв335760 0.0 10131175
15:00+5ссз766632 0.0 1013524
18:00+5с78648 0.0 1013546
21:00+1с47795 0.0 1013239
12 мая, ср
ср1200:00−1ссз369318 0.0 1013152
03:00−2ссз36935 0.0 1013174
06:00−1ссз36915 0.0 1013202
09:00+3с56645 0.0 1013561
12:00+5с78545 0.0 1012917
15:00+5с78565 0.0 1012894
18:00+4с79585 0.0 1012773
21:00+1ссз58775 0.0 1013383
13 мая, чт
чт1300:00−1ссз36915 0.0 1013187
03:00−1сз23905 0.0 101472
06:00−1зсз12845 0.0 101441
09:00+3сз23585 0.0 1014681
12:00+6ссз334748 0.0 10131426
15:00+8ссз544579 0.0 10131554
18:00+7сз555168 0.1 10131302
21:00+4з466531 0.0 1013304
14 мая, пт
пт1400:00+1зюз4877100 0.0 1014214
03:00+1зюз5975100 0.0 1014270
06:00+1юз6978100 0.0 1015391
09:00+3ююз6861100 0.1 1015755
12:00+4юз7867100 0.2 1016985
15:00+4зюз7967100 0.4 1015983
18:00+4зюз7964100 1.1 10151010
21:00+3юз51076100 0.3 1016767
15 мая, сб
сб1500:00+1юз61196100 1.2 1016558
03:00+1юз61197100 0.7 1017426
06:00+1зюз61097100 1.3 1017388
09:00+1зюз5899100 0.4 1018357
12:00+2з568698 0.6 1019705
15:00+5зсз456992 0.0 10191020
18:00+4ссз336993 0.1 1020702
21:00+1ссв338775 0.0 1021217